Regional Weather Roundup
Issued by NWS Charleston, SC

Current Version | Previous Version | Graphics & Text | Print | Product List | Glossary On
Versions: 1 2 3 4 5 6 7 8 9 10 11 12 13 14 15 16 17 18 19 20 21 22 23 24 25 26 27 28 29 30 31 32 33 34 35 36 37 38 39 40 41 42 43 44 45 46 47 48 49 50
556
ASUS42 KCHS 061312
RWRCHS

REGIONAL WEATHER ROUNDUP
NATIONAL WEATHER SERVICE CHARLESTON SC
800 AM EST SAT FEB 06 2016

NOTE: "FAIR" INDICATES FEW OR NO CLOUDS BELOW 12,000 FEET WITH NO
SIGNIFICANT WEATHER AND/OR OBSTRUCTIONS TO VISIBILITY.

NOT ALL STATIONS ARE QUALITY CONTROLLED BY THE NATIONAL
WEATHER SERVICE. USE DATA WITH CAUTION...ESPECIALLY
DEWPOINT OBSERVATIONS.

NOTICE: OBSERVATIONS FOR THE SAVANNAH-HILTON HEAD INTERNATIONAL AIRPORT
/KSAV/ HAVE BEEN TEMPORARILY REMOVED DUE TO AN ERRONEOUS TEMPERATURE
SENSOR. THE OBSERVATION WILL BE REINTRODUCED ONCE REPAIRS ARE COMPLETE.

SCZ027-030-031-034>040-042>050-061400-
...SOUTHEAST SOUTH CAROLINA...

CITY           SKY/WX    TMP DP  RH WIND       PRES   REMARKS
N CHARLESTON   CLOUDY    39  30  70 NE7       30.38R WCI  34
WATERFRONT PRK   N/A     43  34  70 NE10      30.22R
MOUNT PLEASANT CLOUDY    39  30  70 NE6       30.39R WCI  35
JOHNS ISLAND   CLOUDY    43  32  65 N7        30.38R
PINOPOLIS        N/A     43  30  61 NE13      30.31R
MONCKS CORNER  FAIR      36  25  64 NE5       30.39R WCI  32
SUMMERVILLE    CLOUDY    37  34  87 N6        30.40R WCI  33
BEAUFORT MCAS  CLOUDY    42  29  59 NE9       30.37S
BEAUFORT ARPT  CLOUDY    45  30  57 NE15      30.37S HAZE
HILTON HEAD IS NOT AVBL
WALTERBORO     PTSUNNY   37  32  81 CALM      30.40R
ALLENDALE      FAIR      36  30  80 CALM      30.36S

...SOUTHERN MIDLANDS AND PEE DEE...

CITY           SKY/WX    TMP DP  RH WIND       PRES   REMARKS
GEORGETOWN     NOT AVBL
KINGSTREE      NOT AVBL
ORANGEBURG     PTCLDY    35  27  72 NE3       30.39F
BARNWELL       FAIR      34  30  86 CALM      30.38S
AIKEN          FAIR      32  25  74 NE7       30.41F WCI  26
MANNING        NOT AVBL
COLUMBIA       MOCLDY    30  25  81 CALM      30.41F
SUMTER         CLOUDY    32  26  80 NE6       30.40R WCI  26
FLORENCE       CLOUDY    33  30  88 N12       30.42F WCI  24
MYRTLE BEACH   PTCLDY    37  27  65 N10       30.43R WCI  30
N MYRTLE BEACH CLOUDY    39  30  70 N9        30.40F WCI  33

$$

GAZ063-065-086>088-099>101-113>116-118-119-134>141-150-061400-
...SOUTHEAST GEORGIA...

CITY           SKY/WX    TMP DP  RH WIND       PRES   REMARKS
SAVANNAH ARPT  CLOUDY    42  25  50 NE13      30.36S
HUNTER AAF     CLOUDY    43  28  56 NE7       30.33S
FORT STEWART   CLOUDY    42  29  60 N6        30.32F
STATESBORO     CLOUDY    41  28  59 CALM      30.36S
SYLVANIA       CLOUDY    37  33  85 E7        30.36F WCI  32
CLAXTON        PTSUNNY   39  34  81 NE5       30.35F WCI  36

...CSRA...CENTRAL AND FAR SOUTHEAST GEORGIA...

CITY           SKY/WX    TMP DP  RH WIND       PRES   REMARKS
THOMSON        PTCLDY    29  29 100 NE3       30.42S
AUGUSTA-BUSH   CLOUDY    31  29  92 N5        30.38F WCI  26
AUGUSTA-DANIEL PTCLDY    35  25  66 N6        30.37F WCI  30
SWAINSBORO     FAIR      36  28  75 CALM      30.36R
VIDALIA        MOCLDY    37  32  81 NE5       30.34F WCI  34
EASTMAN        FAIR      32  32 100 CALM      30.37R
HAZLEHURST     FAIR      39  32  75 E3        30.33R
ALMA           CLOUDY    42  28  57 NE5       30.32F
WAYCROSS       CLOUDY    45  33  62 NE6       30.32R
JESUP          CLOUDY    45  32  61 NE6       30.34S
BAXLEY         CLOUDY    41  32  70 E7        30.32S
BRUNSWICK      CLOUDY    45  32  61 N5        30.33R
SAINT SIMONS   CLOUDY    46  35  65 N12       30.31S

$$

SCZ027-028-034-036>038-045-046-048>050-GAZ119-141-061400-
...LAKE AND SUPPLEMENTAL COASTAL OBSERVATIONS...

STATION/POSITION TIME  TEMP    WIND        PRES    WAVE   SWELL
                       AIR SEA DIR/SP/G            HT/PER HT/PER/DIR
                 (UTC) (F)     (DEG/KT/KT) (MB)    (FT/S) (FT/S/D)
WINYAH BAY       NOT AVBL
LAKE MURRAY      1200   33      CALM  /  3 1029.5R
ACE BASIN NERRS  NOT AVBL
FORT PULASKI     1200   46 55   20/ 14/ 19 1027.6R
SAPELO ISLAND    1200   47      20/ 13     1027.0R

$$

ANZ835-935-AMZ111-154-330-350-352-354-370-450-454-472-061400-
...C-MAN AND BUOY OBSERVATIONS...

STATION/POSITION TIME  TEMP    WIND        PRES    WAVE   SWELL
                       AIR SEA DIR/SP/G            HT/PER HT/PER/DIR
                 (UTC) (F)     (DEG/KT/KT) (MB)    (FT/S) (FT/S/D)
BUOY 41004       1250   52 66   30/ 21/ 29 1026.4R   6/10   3/10
BUOY 41008       1250   51 56   40/ 23/ 27 1025.6F   6/ 5   2/ 60/ 9
FOLLY BEACH CMAN 1200   44      20/ 16/ 18 1028.1R
CAPERS NEARSHORE NOT AVBL
FRIPP NEARSHORE  NOT AVBL


STATION/POSITION TIME  TEMP    WIND        PRES    WAVE   SWELL
                       AIR SEA DIR/SP/G            HT/PER HT/PER/DIR
                 (UTC) (F)     (DEG/KT/KT) (MB)    (FT/S) (FT/S/D)
5E ST. MARYS GA  1221      57                N/A     6/ 6   2/ 80/11
FRYING PAN BUOY  1200   51 69   10/ 19/ 25 1027.8R
BUOY 41025       1250   47 73  350/ 17/ 23 1029.2R   6/11   5/ 50/11
CAPE LOOKOUT NC  NOT AVBL
BUOY 41002       1250   61 69   60/ 14/ 19   N/A    10/11   8/ 10/11
BUOY 41010       1220   68 74              1021.6R
ST AUGUSTINE FL  1300   55 59   10/ 25/ 28 1024.7R


$$




USA.gov is the U.S. government's official web portal to all federal, state and local government web resources and services.